Tracking 29487 objects as of 11-Sep-2024
HD Live streaming from Space Station
objects crossing your sky now

STARLINK-2587

Track STARLINK-2587 now!
10-day predictions
STARLINK-2587 is classified as:


NORAD ID: 48399
Int'l Code: 2021-038AY
Perigee: 553.3 km
Apogee: 555.3 km
Inclination: 53.1 °
Period: 95.6 minutes
Semi major axis: 6925 km
RCS: Unknown
Launch date: May 4, 2021
Source: United States (US)
Launch site: AIR FORCE EASTERN TEST RANGE (AFETR)
Your satellite tracking list
Your tracking list is empty




NASA's NSSDC Master Catalog

Two Line Element Set (TLE):
1 48399U 21038AY  24255.30507865  .00005288  00000-0  37352-3 0  9995
2 48399  53.0527 265.4558 0001400  96.2154 263.8994 15.06412943186465
Source of the keplerian elements: AFSPC